ANA923 RJTT-ZGGG

Flight info

Callsign ANA923
Flight time N/A
Altitude 38000
Route NINOX Y28 KCC V28 OLIVE Y28 ISAKY Y60 FUE A593 LAMEN/K0845F380 A593 AKARA/K0843S1160 A593 PUD A599 PLT W19 OLPAB OLPAB8
Aircraft A20N/M-SDE2E3FGHIRWXY/LB1

Departure

Time 2026-05-06 21:37
Airport Tokyo Haneda International Airport (RJTT)

Arrival

Time N/A
Airport Guangzhou Baiyun International Airport (ZGGG)
Time Latitude Longitude Altitude Speed Heading
2026-05-06 21:21 35.54840 139.79327 28 ft 0 kts 330°
2026-05-06 21:27 35.54835 139.79330 28 ft 4 kts 330°
2026-05-06 21:27 35.54812 139.79347 27 ft 4 kts 330°
2026-05-06 21:28 35.54793 139.79360 27 ft 4 kts 343°
2026-05-06 21:28 35.54768 139.79360 28 ft 4 kts 32°
2026-05-06 21:28 35.54751 139.79339 28 ft 4 kts 60°
2026-05-06 21:28 35.54740 139.79316 28 ft 0 kts 60°
2026-05-06 21:31 35.54754 139.79345 28 ft 11 kts 60°
2026-05-06 21:32 35.54805 139.79452 28 ft 16 kts 59°
2026-05-06 21:32 35.54785 139.79590 26 ft 12 kts 94°
2026-05-06 21:32 35.54803 139.79651 30 ft 4 kts 116°
2026-05-06 21:33 35.54762 139.79698 28 ft 12 kts 148°
2026-05-06 21:33 35.54670 139.79763 27 ft 18 kts 150°
2026-05-06 21:33 35.54541 139.79855 24 ft 24 kts 150°
2026-05-06 21:33 35.54403 139.79952 22 ft 23 kts 151°
2026-05-06 21:34 35.54293 139.80030 23 ft 1 kts 149°
2026-05-06 21:34 35.54265 139.80050 25 ft 9 kts 149°
2026-05-06 21:34 35.54194 139.80100 21 ft 12 kts 146°
2026-05-06 21:34 35.54192 139.80158 23 ft 8 kts 59°
2026-05-06 21:35 35.54227 139.80231 29 ft 12 kts 59°
2026-05-06 21:35 35.54261 139.80273 27 ft 5 kts 359°
2026-05-06 21:35 35.54319 139.80266 27 ft 11 kts 330°
2026-05-06 21:35 35.54341 139.80251 27 ft 0 kts 329°
2026-05-06 21:36 35.54349 139.80244 27 ft 12 kts 329°
2026-05-06 21:36 35.54751 139.79957 29 ft 118 kts 329°
2026-05-06 21:37 35.55685 139.79303 168 ft 180 kts 330°
2026-05-06 21:37 35.56839 139.78562 869 ft 194 kts 336°
2026-05-06 21:37 35.58239 139.78366 1578 ft 220 kts 11°
2026-05-06 21:37 35.59675 139.79259 2378 ft 247 kts 43°
2026-05-06 21:38 35.60652 139.81090 3207 ft 270 kts 73°
2026-05-06 21:38 35.60792 139.83388 4398 ft 274 kts 103°
2026-05-06 21:38 35.60040 139.85513 5800 ft 273 kts 131°
2026-05-06 21:38 35.58641 139.87071 7216 ft 274 kts 147°
2026-05-06 21:39 35.57155 139.88615 8584 ft 286 kts 138°
2026-05-06 21:39 35.55877 139.90541 9989 ft 296 kts 129°
2026-05-06 21:39 35.54511 139.92514 10990 ft 314 kts 140°
2026-05-06 21:39 35.52647 139.94055 11709 ft 334 kts 160°
2026-05-06 21:40 35.50345 139.94646 12558 ft 343 kts 184°
2026-05-06 21:40 35.47986 139.94221 13808 ft 344 kts 200°
2026-05-06 21:40 35.45875 139.92878 14917 ft 342 kts 221°
2026-05-06 21:40 35.44314 139.90708 16083 ft 340 kts 240°
2026-05-06 21:41 35.43484 139.88042 17181 ft 343 kts 259°
2026-05-06 21:41 35.43353 139.85100 18247 ft 349 kts 270°
2026-05-06 21:41 35.43411 139.82101 19103 ft 355 kts 269°
2026-05-06 21:41 35.43337 139.79057 19921 ft 360 kts 265°
2026-05-06 21:42 35.43123 139.75971 20746 ft 366 kts 265°
2026-05-06 21:42 35.43119 139.72818 21568 ft 374 kts 272°
2026-05-06 21:42 35.43481 139.69623 22383 ft 383 kts 280°
2026-05-06 21:42 35.44227 139.66460 23192 ft 391 kts 285°
2026-05-06 21:43 35.45068 139.63261 23935 ft 397 kts 285°
2026-05-06 21:43 35.45912 139.60020 24648 ft 401 kts 285°
2026-05-06 21:43 35.46763 139.56737 25361 ft 406 kts 285°
2026-05-06 21:43 35.47621 139.53405 26040 ft 411 kts 284°
2026-05-06 21:44 35.48281 139.49983 26698 ft 415 kts 278°
2026-05-06 21:44 35.48628 139.46452 27339 ft 419 kts 272°
2026-05-06 21:44 35.48763 139.42860 27971 ft 424 kts 272°
2026-05-06 21:44 35.48906 139.39224 28585 ft 429 kts 272°
2026-05-06 21:45 35.49056 139.35545 29178 ft 434 kts 272°
2026-05-06 21:45 35.49208 139.31823 29740 ft 439 kts 272°
2026-05-06 21:45 35.49360 139.28058 30286 ft 444 kts 272°
2026-05-06 21:45 35.49512 139.24265 30812 ft 447 kts 272°
2026-05-06 21:46 35.49662 139.20452 31393 ft 449 kts 272°
2026-05-06 21:46 35.49780 139.16626 32063 ft 448 kts 270°
2026-05-06 21:46 35.49647 139.12813 32792 ft 446 kts 266°
2026-05-06 21:46 35.49456 139.09022 33536 ft 443 kts 266°
2026-05-06 21:47 35.49272 139.05252 34250 ft 441 kts 266°
2026-05-06 21:47 35.49092 139.01514 34952 ft 436 kts 266°
2026-05-06 21:47 35.48914 138.97830 35714 ft 430 kts 266°
2026-05-06 21:47 35.48736 138.94192 36455 ft 424 kts 266°
2026-05-06 21:48 35.48561 138.90651 37113 ft 420 kts 266°
2026-05-06 21:48 35.48383 138.87082 37726 ft 417 kts 266°
2026-05-06 21:48 35.48206 138.83552 37997 ft 413 kts 265°
2026-05-06 21:48 35.48029 138.80038 38049 ft 412 kts 265°
2026-05-06 21:49 35.47671 138.73031 38047 ft 414 kts 265°
2026-05-06 21:49 35.47307 138.65963 38051 ft 414 kts 265°
2026-05-06 21:50 35.46938 138.58912 38051 ft 414 kts 265°
2026-05-06 21:50 35.46563 138.51841 38052 ft 415 kts 265°
2026-05-06 21:51 35.46185 138.44775 38048 ft 415 kts 265°
2026-05-06 21:51 35.45804 138.37725 38027 ft 415 kts 265°
2026-05-06 21:52 35.45418 138.30682 38045 ft 417 kts 265°
2026-05-06 21:52 35.45025 138.23579 38056 ft 418 kts 265°
2026-05-06 21:53 35.44628 138.16457 38051 ft 418 kts 265°
2026-05-06 21:53 35.44225 138.09346 38054 ft 418 kts 265°
2026-05-06 21:54 35.43819 138.02224 38054 ft 419 kts 265°
2026-05-06 21:54 35.43409 137.95101 38053 ft 419 kts 265°
2026-05-06 21:55 35.43400 137.94940 38054 ft 419 kts 265°